Weather Roundup
Issued by NWS

Home | Current Version | Previous Version | Graphics & Text | Print | Product List | Glossary Off
Versions: 1 2 3 4 5 6 7 8 9 10 11 12 13 14 15 16 17 18 19 20 21 22 23 24 25 26 27 28 29 30 31 32 33 34 35 36 37 38 39 40 41 42 43 44 45 46 47 48 49 50

000
NZUS93 KARX 201659
HRRWXR

CURRENT HOURLY OBSERVATIONS ACROSS
MUCH OF THE UPPER MISSISSIPPI VALLEY
NATIONAL WEATHER SERVICE LA CROSSE WI
1200 PM CDT MON APR 20 2015


...SOUTHEAST MINNESOTA...


CITY           SKY/WX    TMP DP  RH WIND       PRES   REMARKS
ROCHESTER      CLOUDY    38  30  73 NW23G35   29.51R WCI  27
ROCHESTER/MAYO CLOUDY    37  29  71 W24G38    29.50R WCI  26
WINONA         CLOUDY    41  32  70 NW12G26   29.49R
AUSTIN         CLOUDY    39  28  65 W24G31    29.54R WCI  28
ALBERT LEA     CLOUDY    39  30  70 NW17G29   29.56S WCI  30
DODGE CENTER   CLOUDY    37  30  75 NW20G28   29.52S WCI  27
PRESTON        CLOUDY    37  31  77 NW22G31   29.52R WCI  26
OWATONNA       CLOUDY    39  28  65 NW25G35   29.55S WCI  28
FARIBAULT      CLOUDY    39  28  65 NW17G32   29.55S WCI  30
$$

...ELSEWHERE IN MINNESOTA...


CITY           SKY/WX    TMP DP  RH WIND       PRES   REMARKS
MINNEAPOLIS    CLOUDY    40  28  62 NW20G29   29.52S WCI  30
INTNL FALLS    CLOUDY    31  26  82 W17G25    29.40F WCI  19
DULUTH         CLOUDY    35  28  75 NW18G28   29.36F WCI  24
RED WING       CLOUDY    39  28  65 W17G26    29.49F WCI  30
REDWOOD FALLS  CLOUDY    41  30  65 NW17G30   29.61S
MANKATO        CLOUDY    39  27  60 NW26G32   29.57S WCI  28
WORTHINGTON    CLOUDY    45  27  49 NW29G38   29.65S
FAIRMONT       CLOUDY    39  28  65 NW15G24   29.62S WCI  31
$$

...SOUTHWEST WISCONSIN...


CITY           SKY/WX    TMP DP  RH WIND       PRES   REMARKS
LA CROSSE      CLOUDY    43  33  68 NW21G29   29.46R
PRAIRIE DU CHI CLOUDY    41  32  69 W21G30    29.50R
BOSCOBEL       CLOUDY    44  34  67 W12G23    29.47R
LONE ROCK      NOT AVBL
PLATTEVILLE    CLOUDY    42  36  79 W17G31    29.46R
FORT MC COY    CLOUDY    40  35  81 W9G21     29.43R WCI  34
VIROQUA        CLOUDY    39  36  88 W18G24    29.44R WCI  29
WIS DELLS      CLOUDY    42  38  87 NW14G21   29.37R
$$

...ELSEWHERE IN WISCONSIN...


CITY           SKY/WX    TMP DP  RH WIND       PRES   REMARKS
MILWAUKEE      CLOUDY    44  36  73 W16G28    29.31R
MADISON        LGT RAIN  44  37  76 NW16G25   29.38R
GREEN BAY      CLOUDY    43  38  82 W22G29    29.23R
EAU CLAIRE     NOT AVBL
BLACK RVR FLS  CLOUDY    40  34  79 W15G22    29.41R WCI  32
MEDFORD        LGT RAIN  35  34  93 NW13G18   29.32S WCI  27
WAUSAU         LGT RAIN  37  34  89 NW17      29.29R WCI  27
WIS RAPIDS     LGT RAIN  40  35  83 NW15G26   29.36R WCI  32
MARSHFIELD     LGT RAIN  40  36  86 NW17G26   29.34R WCI  31
RICE LAKE      CLOUDY    37  32  82 W14G24    29.44S WCI  28
$$

...NORTHEAST IOWA...


CITY           SKY/WX    TMP DP  RH WIND       PRES   REMARKS
DECORAH        CLOUDY    39  32  75 NW17G23   29.50R WCI  30
MASON CITY     CLOUDY    42  31  64 NW29G43   29.60S
CHARLES CITY   CLOUDY    43  32  65 NW33G46   29.56R
OELWEIN        CLOUDY    43  34  70 NW24G33   29.54R
$$

...ELSEWHERE IN IOWA...


CITY           SKY/WX    TMP DP  RH WIND       PRES   REMARKS
DES MOINES     PTSUNNY   49  31  49 NW22G33   29.70R
IOWA CITY      CLOUDY    47  32  56 NW28G43   29.60R
FORT DODGE     CLOUDY    46  34  61 NW18G28   29.66S
$$

...NORTHERN ILLINOIS...


CITY           SKY/WX    TMP DP  RH WIND       PRES   REMARKS
CHICAGO-OHARE  CLOUDY    46  39  76 W20G31    29.39R
CHICAGO-MIDWAY CLOUDY    50  40  68 W24G36    29.40R
MOLINE         CLOUDY    48  32  53 W28G41    29.55R
ROCKFORD       LGT RAIN  45  37  73 W24G31    29.45R
PEORIA         CLOUDY    50  34  54 W22G30    29.58R
$$

NOTE: "FAIR" INDICATES FEW OR NO CLOUDS BELOW 12,000 FEET WITH NO
SIGNIFICANT WEATHER AND/OR OBSTRUCTIONS TO VISIBILITY. WIND
SPEEDS ARE IN MILES-PER-HOUR.



USA.gov is the U.S. government's official web portal to all federal, state and local government web resources and services.